Location: Coleto Creek Park and Reservoir
(28.7196°N, 97.1740°W)
Time: 04:54:43
(UTC-05:00)

Hubble Space Telescope - Visible Passes

Search period start: 01 May 2016 00:00
Search period end: 11 May 2016 00:00
Orbit: 539 x 543 km, 28.5° (Epoch: 30 April)

Date Brightness Start Highest point End Pass type
(mag) Time Alt. Az. Time Alt. Az. Time Alt. Az.
01 May 3.1 04:17:54 19° E 04:17:54 19° E 04:19:13 10° E visible
01 May 0.7 05:53:17 17° W 05:56:27 83° S 06:00:35 10° E visible
02 May 3.3 04:08:41 16° E 04:08:41 16° E 04:09:41 10° E visible
02 May 0.7 05:44:05 20° W 05:46:52 87° S 05:51:00 10° E visible
03 May 3.5 03:59:30 14° E 03:59:30 14° E 04:00:07 10° E visible
03 May 0.7 05:34:53 25° W 05:37:16 88° S 05:41:25 10° E visible
04 May 3.8 03:50:21 11° E 03:50:21 11° E 03:50:32 10° E visible
04 May 0.7 05:25:44 30° W 05:27:41 87° S 05:31:49 10° E visible
05 May 0.6 05:16:38 39° W 05:18:05 84° S 05:22:13 10° E visible
06 May 0.6 05:07:38 54° W 05:08:28 78° S 05:12:36 10° ESE visible
07 May 0.6 04:58:44 69° SSW 04:58:52 70° S 05:02:59 10° ESE visible
08 May 1.1 04:49:57 51° SSE 04:49:57 51° SSE 04:53:19 10° ESE visible
09 May 2.1 04:41:22 29° SE 04:41:22 29° SE 04:43:38 10° ESE visible
09 May 2.4 06:17:42 10° WSW 06:20:30 18° SSW 06:23:19 10° SSE visible
10 May 3.0 04:32:57 16° SE 04:32:57 16° SE 04:33:53 10° SE visible
10 May 2.7 06:08:43 10° WSW 06:10:48 14° SSW 06:12:54 10° S visible
